KE0RUZ Weather Reports


Display with metric or nautical units.
time (UTC)temp
F
wind
direction
speed
MPH
gust
MPH
rain 1hr
in
rain 24hr
in
rain mn
in
humidity
%
barometer
mb
20260507231548 67 312 3.0 8.0 0.00 0.00 0.00 50 1015.2
20260507230052 67 263 4.0 9.0 0.00 0.00 0.00 49 1015.4
20260507224547 67 238 6.0 11.0 0.00 0.00 0.00 50 1015.6
20260507223046 68 236 2.0 10.0 0.00 0.00 0.00 50 1015.7
20260507221545 67 237 2.0 12.0 0.00 0.00 0.00 49 1015.8
20260507220049 67 274 4.0 9.0 0.00 0.00 0.00 52 1015.8
20260507214547 67 235 3.0 11.0 0.00 0.00 0.00 50 1016.0
20260507213053 67 283 4.0 12.0 0.00 0.00 0.00 53 1016.2
20260507211549 67 205 3.0 10.0 0.00 0.00 0.00 51 1016.3
20260507210042 66 317 4.0 10.0 0.00 0.00 0.00 54 1016.3
20260507204539 67 284 3.0 9.0 0.00 0.00 0.00 54 1016.7
20260507203046 67 278 3.0 14.0 0.00 0.00 0.00 53 1017.0
20260507201548 67 236 1.0 7.0 0.00 0.00 0.00 52 1017.0
20260507200044 67 306 3.0 10.0 0.00 0.00 0.00 51 1017.3
20260507194547 66 250 5.0 11.0 0.00 0.00 0.00 51 1017.6
20260507193046 66 290 4.0 8.0 0.00 0.00 0.00 49 1017.7
20260507191545 66 29 4.0 11.0 0.00 0.00 0.00 53 1017.9
20260507190043 65 323 3.0 11.0 0.00 0.00 0.00 48 1017.9
20260507184546 65 233 3.0 8.0 0.00 0.00 0.00 52 1017.9
20260507183054 65 359 2.0 9.0 0.00 0.00 0.00 48 1018.1
20260507181547 64 287 4.0 9.0 0.00 0.00 0.00 49 1018.2
20260507180053 64 188 5.0 11.0 0.00 0.00 0.00 46 1018.5
20260507174549 65 203 4.0 10.0 0.00 0.00 0.00 48 1018.7
20260507173059 64 256 4.0 11.0 0.00 0.00 0.00 51 1019.1
20260507171553 64 331 1.0 6.0 0.00 0.00 0.00 55 1019.3
20260507170052 63 20 2.0 9.0 0.00 0.00 0.00 51 1019.5
20260507164552 62 248 3.0 9.0 0.00 0.00 0.00 51 1019.9
20260507163051 62 251 4.0 10.0 0.00 0.00 0.00 51 1019.8
20260507161554 62 263 3.0 8.0 0.00 0.00 0.00 53 1020.0
20260507160052 62 126 1.0 8.0 0.00 0.00 0.00 49 1019.9
20260507154548 61 241 2.0 6.0 0.00 0.00 0.00 53 1020.0
20260507153101 60 271 3.0 8.0 0.00 0.00 0.00 52 1020.0
20260507151545 60 351 2.0 6.0 0.00 0.00 0.00 52 1020.4
20260507150050 59 297 3.0 9.0 0.00 0.00 0.00 52 1020.4
20260507144546 58 147 2.0 6.0 0.00 0.00 0.00 57 1020.4
20260507143059 57 235 3.0 7.0 0.00 0.00 0.00 58 1020.3
20260507141547 57 187 2.0 5.0 0.00 0.00 0.00 59 1020.4
20260507140042 55 201 1.0 5.0 0.00 0.00 0.00 66 1020.6
20260507134540 54 131 2.0 6.0 0.00 0.00 0.00 67 1020.6
20260507133044 53 203 1.0 3.0 0.00 0.00 0.00 73 1020.6
20260507131548 51 0 0.0 3.0 0.00 0.00 0.00 78 1020.7
20260507130058 49 129 0.0 2.0 0.00 0.00 0.00 83 1020.6
20260507124551 46 0 0.0 2.0 0.00 0.00 0.00 90 1020.4
20260507123040 43 0 0.0 1.0 0.00 0.00 0.00 93 1020.3
20260507121554 41 0 0.0 0.0 0.00 0.00 0.00 95 1020.3
20260507120251 39 0 0.0 0.0 0.00 0.00 0.00 94 1020.1
20260507114544 39 0 0.0 0.0 0.00 0.00 0.00 93 1020.1
20260507113047 40 0 0.0 0.0 0.00 0.00 0.00 93 1020.0
20260507111542 40 0 0.0 0.0 0.00 0.00 0.00 93 1020.0
20260507110057 41 0 0.0 0.0 0.00 0.00 0.00 93 1019.9
20260507104552 42 0 0.0 0.0 0.00 0.00 0.00 94 1019.8
20260507103112 41 0 0.0 0.0 0.00 0.00 0.00 94 1019.8
20260507101544 41 0 0.0 0.0 0.00 0.00 0.00 94 1019.7
20260507100055 41 0 0.0 0.0 0.00 0.00 0.00 94 1019.8
20260507094550 41 0 0.0 0.0 0.00 0.00 0.00 94 1019.8
20260507093115 41 0 0.0 0.0 0.00 0.00 0.00 94 1019.7
20260507091550 40 0 0.0 0.0 0.00 0.00 0.00 94 1019.9
20260507090053 39 0 0.0 0.0 0.00 0.00 0.00 94 1019.8
20260507084549 38 0 0.0 0.0 0.00 0.01 0.00 93 1019.8
20260507083047 38 0 0.0 0.0 0.00 0.01 0.00 93 1019.8
20260507081547 38 0 0.0 0.0 0.00 0.01 0.00 92 1019.9
20260507080054 38 0 0.0 0.0 0.00 0.01 0.00 93 1019.9
20260507074543 38 0 0.0 0.0 0.00 0.01 0.00 92 1019.7
20260507073051 38 0 0.0 0.0 0.00 0.01 0.00 92 1019.9
20260507071548 39 0 0.0 0.0 0.00 0.01 0.00 92 1020.0
20260507064550 38 0 0.0 0.0 0.00 0.01 0.00 91 1020.2
20260507063043 39 0 0.0 0.0 0.00 0.01 0.00 90 1020.3
20260507061547 39 0 0.0 0.0 0.00 0.01 0.00 90 1020.3
20260507060038 40 0 0.0 0.0 0.00 0.01 0.00 90 1020.4
20260507054602 40 0 0.0 0.0 0.00 0.01 0.00 89 1020.2
20260507053102 41 0 0.0 0.0 0.00 0.01 0.00 89 1020.3
20260507051555 41 0 0.0 0.0 0.00 0.01 0.00 87 1020.3
20260507050055 41 0 0.0 0.0 0.00 0.01 0.00 86 1020.4
20260507044556 42 0 0.0 0.0 0.00 0.01 0.01 85 1020.5
20260507043047 43 0 0.0 0.0 0.00 0.01 0.01 85 1020.3
20260507041601 43 0 0.0 0.0 0.00 0.01 0.01 85 1020.2
20260507040054 44 0 0.0 0.0 0.00 0.01 0.01 84 1020.2
20260507034549 44 0 0.0 0.0 0.00 0.01 0.01 83 1020.2
20260507033048 45 0 0.0 0.0 0.00 0.01 0.01 82 1020.1
20260507031545 45 0 0.0 0.0 0.00 0.01 0.01 81 1020.1
20260507030048 46 0 0.0 0.0 0.00 0.01 0.01 80 1020.1
20260507024546 47 0 0.0 0.0 0.00 0.01 0.01 78 1020.1
20260507023040 48 0 0.0 0.0 0.00 0.01 0.01 74 1019.9
20260507021539 49 0 0.0 0.0 0.00 0.01 0.01 71 1019.6
20260507020045 50 0 0.0 0.0 0.00 0.01 0.01 68 1019.3
20260507014606 52 0 0.0 1.0 0.00 0.01 0.01 63 1019.3
20260507013047 53 0 1.0 3.0 0.00 0.01 0.01 60 1019.2
20260507011554 55 0 0.0 3.0 0.00 0.01 0.01 58 1018.9
20260507010044 56 0 1.0 3.0 0.00 0.01 0.01 56 1018.9
20260507004549 58 0 0.0 1.0 0.00 0.02 0.01 57 1018.7
20260507003046 59 0 0.0 2.0 0.00 0.02 0.01 55 1018.6
20260507001558 58 39 0.0 6.0 0.00 0.02 0.01 54 1018.4
20260507000057 59 15 4.0 8.0 0.00 0.02 0.01 51 1018.0
20260506234604 60 30 3.0 7.0 0.00 0.04 0.01 50 1017.9
20260506233044 60 39 3.0 11.0 0.00 0.04 0.01 50 1017.7